[[[{"header":{"parameterUnit":"kt","parameterCategory":2,"dx":1,"dy":1,"la1":30.253999710083008,"la2":30.299108505249023,"lo1":-89.0895004272461,"lo2":-89.04439544677734,"nx":28,"ny":28,"refTime":"2022-10-01T21:00:00:Z","depth":"0","parameterNumber":2,"parameterNumberName":"U-component_of_CURRENTS"},"data":[-0.2324,-0.2207,-0.2174,-0.2085,-0.2088,-0.2024,-0.2023,-0.2004,-0.2021,-0.195,-0.1899,-0.1931,-0.1808,-0.1569,-0.1158,-0.1034,-0.1095,-0.1039,-0.1344,-0.1405,-0.1493,-0.1577,-0.1407,-0.0758,-0.0758,-0.0796,-0.0797,-0.0798,-0.2385,-0.2287,-0.2282,-0.2352,-0.2338,-0.247,-0.2557,-0.2543,-0.2559,-0.2635,-0.2655,-0.245,-0.2104,-0.1991,-0.168,-0.1541,-0.1522,-0.1592,-0.1622,-0.162,-0.186,-0.1671,-0.1066,-0.1066,-0.1067,-0.1067,-0.1067,-0.1067,-0.2502,-0.2448,-0.2511,-0.2579,-0.2663,-0.2727,-0.2724,-0.2913,-0.298,-0.3054,-0.3207,-0.3122,-0.2917,-0.2853,-0.2805,-0.2506,-0.2898,-0.2403,-0.259,-0.2764,-0.2543,-0.2873,-0.2555,-0.256,-0.2565,-0.257,-0.2574,0,-0.2695,-0.2697,-0.2773,-0.287,-0.2957,-0.3067,-0.3213,-0.3236,-0.3511,-0.3556,-0.3614,-0.3605,-0.3605,-0.3409,-0.3474,-0.3459,-0.357,-0.3575,-0.3512,-0.2833,-0.2909,-0.2865,-0.3376,-0.3069,-0.3078,-0.3084,-0.3089,-0.3093,-0.2908,-0.2913,-0.3139,-0.3195,-0.3329,-0.3431,-0.3498,-0.3751,-0.3799,-0.3976,-0.3949,-0.4049,-0.4005,-0.4112,-0.4079,-0.4116,-0.4198,-0.3788,-0.3648,-0.353,-0.3698,-0.3843,-0.3778,-0.3189,-0.3177,-0.3167,-0.3159,0,-0.3,-0.3249,-0.3363,-0.3656,-0.3721,-0.3723,-0.3947,-0.3957,-0.4095,-0.4089,-0.4099,-0.4252,-0.4305,-0.4444,-0.4522,-0.4496,-0.4377,-0.4466,-0.4061,-0.4028,-0.3684,-0.3814,-0.3703,-0.3601,-0.4267,-0.4263,-0.4259,0,-0.3355,-0.342,-0.38,-0.3839,-0.3859,-0.4139,-0.4103,-0.4191,-0.4301,-0.428,-0.4398,-0.4372,-0.4493,-0.4545,-0.4606,-0.4555,-0.4646,-0.4466,-0.4491,-0.4129,-0.4089,-0.3915,-0.4021,-0.4627,-0.4626,-0.4625,-0.4625,0,-0.3542,-0.3885,-0.394,-0.4033,-0.4343,-0.434,-0.4426,-0.4488,-0.4486,-0.4515,-0.4531,-0.4521,-0.4521,-0.4546,-0.4618,-0.4624,-0.4653,-0.4685,-0.4534,-0.4528,-0.4104,-0.406,-0.3818,-0.4624,-0.4624,-0.4624,-0.4624,0,-0.3889,-0.4115,-0.4205,-0.4489,-0.4532,-0.4556,-0.4582,-0.4597,-0.4625,-0.4638,-0.4615,-0.4634,-0.4594,-0.4629,-0.4625,-0.4639,-0.4656,-0.4686,-0.469,-0.446,-0.4537,-0.4196,-0.4063,-0.3934,-0.4811,-0.4812,-0.4812,0,-0.3963,-0.4219,-0.4498,-0.4573,-0.4686,-0.4834,-0.4824,-0.4841,-0.485,-0.4826,-0.4799,-0.474,-0.4747,-0.4732,-0.4712,-0.4735,-0.4713,-0.4718,-0.473,-0.473,-0.4576,-0.4532,-0.4092,-0.4099,-0.482,-0.4819,-0.4819,0,-0.4077,-0.4596,-0.4608,-0.4732,-0.4965,-0.498,-0.4987,-0.4981,-0.495,-0.4953,-0.488,-0.4801,-0.4811,-0.4749,-0.4736,-0.4716,-0.4738,-0.4737,-0.4735,-0.4779,-0.4749,-0.4572,-0.4551,-0.4755,-0.4752,-0.475,-0.4825,0,-0.446,-0.4635,-0.4688,-0.4966,-0.5014,-0.503,-0.5121,-0.5119,-0.5119,-0.5099,-0.5016,-0.4978,-0.4883,-0.4894,-0.4854,-0.478,-0.4809,-0.481,-0.4772,-0.4772,-0.4813,-0.4809,-0.4843,-0.4841,-0.484,-0.4839,0,0,-0.4446,-0.4691,-0.4934,-0.5084,-0.511,-0.5199,-0.5212,-0.5209,-0.5182,-0.5132,-0.5188,-0.5026,-0.4973,-0.4851,-0.4875,-0.4847,-0.4853,-0.4784,-0.4783,-0.4777,-0.4771,-0.4809,-0.4806,-0.4837,-0.4837,-0.4836,-0.4836,0,-0.4636,-0.483,-0.496,-0.5053,-0.5186,-0.521,-0.5227,-0.5268,-0.5258,-0.5186,-0.5173,-0.5133,-0.4987,-0.4945,-0.4892,-0.4843,-0.4811,-0.4842,-0.4789,-0.4776,-0.4772,-0.4768,-0.4805,-0.4803,-0.4833,-0.4833,-0.4834,0,-0.4755,-0.4957,-0.5009,-0.5206,-0.5226,-0.5269,-0.53,-0.5312,-0.5286,-0.524,-0.5166,-0.5135,-0.5037,-0.4962,-0.4918,-0.4899,-0.4775,-0.4785,-0.4789,-0.4711,-0.4693,-0.4689,-0.4685,-0.4728,-0.4728,-0.4728,0,0,-0.4887,-0.5065,-0.519,-0.5227,-0.5282,-0.5287,-0.5281,-0.5313,-0.5287,-0.5278,-0.5214,-0.5138,-0.5062,-0.5008,-0.4932,-0.4801,-0.4769,-0.4776,-0.478,-0.4785,-0.4712,-0.4693,-0.469,-0.4729,-0.4729,-0.4729,0,0,-0.4875,-0.5145,-0.5198,-0.5303,-0.5327,-0.5329,-0.532,-0.5325,-0.528,-0.5286,-0.5213,-0.5192,-0.5117,-0.5038,-0.5054,-0.4929,-0.4907,-0.4898,-0.4979,-0.4983,-0.4988,-0.4931,-0.5028,0,0,0,0,0,-0.5069,-0.5128,-0.5176,-0.5202,-0.5297,-0.5305,-0.5299,-0.5338,-0.5345,-0.5353,-0.53,-0.5258,-0.5074,-0.5085,-0.5041,-0.5021,-0.473,-0.473,-0.4729,-0.4804,-0.481,-0.4815,0,0,0,0,0,0,-0.508,-0.512,-0.517,-0.5194,-0.5213,-0.5304,-0.5343,-0.5349,-0.5351,-0.5364,-0.5268,-0.5254,-0.5213,-0.51,-0.5061,-0.5045,-0.504,-0.473,-0.4729,-0.4729,-0.4806,-0.4811,-0.4815,0,0,0,0,0,-0.5088,-0.512,-0.5313,-0.5186,-0.5203,-0.5247,-0.5348,-0.5354,-0.5353,-0.5276,-0.5268,-0.5396,-0.521,-0.5177,-0.5076,-0.5066,-0.5066,-0.5052,-0.473,-0.4729,-0.4729,-0.4808,0,0,0,0,0,0,-0.5094,-0.5066,-0.5311,-0.5309,-0.5244,-0.5242,-0.5264,-0.5358,-0.5263,-0.5259,-0.5396,-0.5407,-0.5207,-0.5182,-0.5156,-0.5081,-0.5087,-0.5073,-0.5064,-0.4729,-0.4729,-0.4729,0,0,0,0,0,0,-0.5048,-0.5067,-0.531,-0.5382,-0.5388,-0.5238,-0.5258,-0.5097,-0.5256,-0.5385,-0.5394,-0.5402,-0.5221,-0.5184,-0.5164,-0.4908,-0.5103,-0.509,-0.508,-0.5074,-0.4729,-0.4729,0,0,0,0,0,0,-0.5052,-0.5067,-0.5382,-0.5386,-0.5392,-0.5363,-0.5084,-0.5163,-0.539,-0.5383,-0.5406,-0.5413,-0.5219,-0.5202,-0.5169,-0.4921,-0.4911,-0.5103,-0.5093,-0.5087,-0.5083,0,0,0,0,0,0,0,-0.5056,-0.5002,-0.5337,-0.539,-0.5395,-0.5292,-0.5291,-0.5289,-0.5392,-0.5398,-0.5404,-0.541,-0.518,-0.5165,-0.515,-0.4932,0,0,-0.5104,-0.5097,0,0,0,0,0,0,0,0,-0.4991,-0.4999,-0.5337,-0.5337,-0.5337,-0.5292,-0.5291,-0.5289,-0.5393,-0.5398,-0.5403,-0.5408,-0.5176,-0.5164,-0.5152,0,0,0,0,0,0,0,0,0,0,0,0,0,0,0,-0.5337,-0.5337,0,-0.5292,-0.5291,-0.529,-0.5394,-0.5398,-0.5402,-0.5406,-0.5172,-0.5163,-0.5153,0,0,0,0,0,0,0,0,0,0,0,0,0,0,0,0,0,0,0,0,0,0,0,0,0,0,0,0,0,0,0,0,0,0,0,0,0,0,0,0,0,0,0,0,0,0,0,0,0,0,0,0,0,0,0,0,0,0,0,0,0,0,0,0,0,0,0,0,0]}],[{"header":{"parameterUnit":"kt","parameterCategory":2,"dx":1,"dy":1,"la1":30.253999710083008,"la2":30.299108505249023,"lo1":-89.0895004272461,"lo2":-89.04439544677734,"nx":28,"ny":28,"refTime":"2022-10-01T21:00:00:Z","depth":"0","parameterNumber":3,"parameterNumberName":"V-component_of_CURRENTS"},"data":[-0.2796,-0.2595,-0.2516,-0.2258,-0.2102,-0.1899,-0.1797,-0.169,-0.1662,-0.1636,-0.1672,-0.1711,-0.0998,0.0271,0.1187,0.1382,0.1814,0.1805,0.2111,0.1533,0.1475,0.1421,0.1599,0.1979,0.1981,0.2801,0.2809,0.2815,-0.2925,-0.2772,-0.2579,-0.2245,-0.2119,-0.1993,-0.1788,-0.1673,-0.1586,-0.162,-0.1592,-0.145,-0.1012,-0.052,0.0298,0.0767,0.0943,0.1048,0.1095,0.1268,0.0508,0.0657,0.0844,0.0843,0.0843,0.0843,0.0842,0.0842,-0.3053,-0.2912,-0.2566,-0.2317,-0.2123,-0.1943,-0.1804,-0.1629,-0.1531,-0.1426,-0.1423,-0.1435,-0.1091,-0.0667,-0.0434,0.0191,0.0215,0.035,0.0481,0.0501,0.0872,0.0111,0.0137,0.0137,0.0137,0.0137,0.0136,0,-0.3032,-0.2899,-0.2571,-0.2275,-0.2061,-0.1814,-0.1565,-0.1538,-0.1273,-0.1252,-0.1204,-0.1201,-0.1002,-0.0838,-0.0569,-0.0434,-0.0047,-0.0271,-0.0017,0.0337,0.0437,0.0697,-0.0149,-0.0238,-0.0241,-0.0243,-0.0244,-0.0245,-0.307,-0.2845,-0.2311,-0.2139,-0.1851,-0.1612,-0.1466,-0.1185,-0.1109,-0.0976,-0.0996,-0.0942,-0.0931,-0.0829,-0.0589,-0.049,-0.0247,-0.0347,-0.0184,0.0094,0.0279,0.0348,0.0559,-0.0272,-0.0269,-0.0266,-0.0264,0,-0.3102,-0.2652,-0.222,-0.1669,-0.1542,-0.1424,-0.1063,-0.1021,-0.089,-0.0873,-0.0873,-0.0778,-0.0752,-0.0689,-0.0682,-0.0561,-0.034,-0.0468,-0.0462,-0.0419,0.0079,0.0231,0.0319,0.0568,-0.0348,-0.0345,-0.0341,0,-0.2877,-0.2572,-0.193,-0.1689,-0.1489,-0.1053,-0.0976,-0.0821,-0.0704,-0.0688,-0.0593,-0.0619,-0.055,-0.0574,-0.0526,-0.0455,-0.0579,-0.0303,-0.0273,-0.0251,-0.0231,-0.0028,0.0127,-0.0481,-0.0479,-0.0477,-0.0476,0,-0.2888,-0.2143,-0.1802,-0.1562,-0.0935,-0.0862,-0.068,-0.0544,-0.0494,-0.0469,-0.0463,-0.0484,-0.0491,-0.0493,-0.0422,-0.0371,-0.0484,-0.04,-0.0247,-0.0237,-0.0253,-0.0235,-0.0079,-0.0473,-0.0473,-0.0472,-0.0472,0,-0.2554,-0.2108,-0.163,-0.1064,-0.0917,-0.074,-0.0581,-0.044,-0.038,-0.0335,-0.0336,-0.0298,-0.0326,-0.0221,-0.028,-0.0223,-0.0212,-0.0188,-0.0194,-0.0031,0.0067,-0.0152,-0.0148,0.0116,-0.0243,-0.0241,-0.0238,0,-0.2697,-0.204,-0.1609,-0.119,-0.0827,-0.0552,-0.0451,-0.0297,-0.0216,-0.0189,-0.0165,-0.0129,-0.0047,-0.0038,-0.0044,-0.0015,-0.0065,0.0036,-0.009,-0.0096,0.0015,0.0037,0.0062,-0.0115,-0.0206,-0.021,-0.0212,0,-0.2743,-0.1793,-0.1731,-0.1438,-0.087,-0.0675,-0.0515,-0.0308,-0.0314,-0.0119,-0.0155,-0.0008,-0.0007,0.002,0.0072,0.0058,-0.0013,0.0093,0.0092,-0.0071,-0.0142,0.0055,0.0051,0.0043,0.004,0.0038,-0.0187,0,-0.2337,-0.1938,-0.1762,-0.1195,-0.0973,-0.0708,-0.0413,-0.03,-0.0227,-0.0143,-0.0075,0.0047,0.0092,0.0161,0.0198,0.0171,0.0147,0.0207,0.0126,0.016,0.0067,0.0047,0.0287,0.0287,0.0287,0.0287,0,0,-0.2572,-0.2047,-0.1664,-0.1297,-0.1102,-0.0845,-0.0604,-0.0478,-0.019,-0.0193,-0.0165,0.0017,0.01,0.0109,0.0128,0.025,0.0201,0.0161,0.0192,0.0182,0.0172,0.0082,0.0063,0.0288,0.0288,0.0288,0.0288,0,-0.2357,-0.2,-0.1734,-0.143,-0.101,-0.084,-0.0756,-0.041,-0.0395,-0.0171,-0.0209,-0.0137,0.0088,0.0059,0.0083,0.025,0.0163,0.0301,0.0225,0.0197,0.0186,0.0177,0.0086,0.0069,0.0288,0.0288,0.0288,0,-0.2319,-0.1949,-0.1816,-0.1272,-0.1063,-0.0797,-0.0773,-0.0547,-0.0457,-0.0416,-0.0306,-0.0231,-0.0163,-0.0042,0.0018,-0.001,0.0104,0.0159,0.0162,0.0087,0.0052,0.0043,0.0036,0.011,0.0109,0.0108,0,0,-0.2192,-0.1889,-0.1441,-0.1219,-0.1037,-0.0806,-0.0692,-0.0621,-0.0464,-0.0437,-0.0367,-0.0304,-0.0228,-0.0184,-0.0078,0.0107,0.0046,0.013,0.0139,0.0145,0.0075,0.0042,0.0036,0.0103,0.0103,0.0103,0,0,-0.2224,-0.1669,-0.1553,-0.1221,-0.0963,-0.0693,-0.0623,-0.0558,-0.0458,-0.0506,-0.0482,-0.0468,-0.0344,-0.0279,-0.0347,-0.0159,-0.0185,-0.0164,-0.0238,-0.0225,-0.0216,-0.0351,-0.0457,0,0,0,0,0,-0.1876,-0.1686,-0.1579,-0.1481,-0.0985,-0.0668,-0.0626,-0.0599,-0.0664,-0.0599,-0.0566,-0.0615,-0.0354,-0.0413,-0.0365,-0.0354,0.0041,0.0052,0.0062,0.0016,0.0028,0.0037,0,0,0,0,0,0,-0.1835,-0.1705,-0.1588,-0.1277,-0.1168,-0.0675,-0.08,-0.0787,-0.0677,-0.0699,-0.0611,-0.061,-0.0615,-0.0436,-0.0393,-0.0386,-0.0472,0.0045,0.0054,0.0063,0.002,0.0029,0.0038,0,0,0,0,0,-0.1802,-0.1698,-0.0888,-0.1288,-0.1193,-0.1068,-0.0814,-0.0804,-0.0745,-0.0654,-0.0655,-0.074,-0.0608,-0.0577,-0.041,-0.0408,-0.0501,-0.0485,0.0051,0.0059,0.0065,0.0025,0,0,0,0,0,0,-0.1778,-0.1734,-0.0873,-0.0847,-0.1406,-0.1105,-0.1047,-0.0819,-0.0712,-0.0702,-0.0783,-0.0801,-0.0599,-0.0577,-0.0553,-0.0421,-0.0525,-0.0509,-0.0499,0.0057,0.0063,0.0068,0,0,0,0,0,0,-0.179,-0.1711,-0.086,-0.1009,-0.1002,-0.1139,-0.1086,-0.0879,-0.0715,-0.0853,-0.086,-0.0793,-0.0668,-0.0575,-0.0557,-0.0234,-0.0544,-0.0528,-0.0517,-0.0511,0.0062,0.0066,0,0,0,0,0,0,-0.1759,-0.1692,-0.1017,-0.1011,-0.1006,-0.0733,-0.0967,-0.0491,-0.0749,-0.0862,-0.0779,-0.0793,-0.0665,-0.0645,-0.0559,-0.0243,-0.0237,-0.0543,-0.0533,-0.0525,-0.052,0,0,0,0,0,0,0,-0.1734,-0.2159,-0.1005,-0.1012,-0.1008,-0.0611,-0.0606,-0.0601,-0.0752,-0.0764,-0.0776,-0.0787,-0.0632,-0.0615,-0.0598,-0.025,0,0,-0.0545,-0.0537,0,0,0,0,0,0,0,0,-0.219,-0.2166,-0.1004,-0.0997,-0.0991,-0.0611,-0.0606,-0.0602,-0.0754,-0.0764,-0.0774,-0.0783,-0.0627,-0.0614,-0.06,0,0,0,0,0,0,0,0,0,0,0,0,0,0,0,-0.1003,-0.0998,0,-0.061,-0.0606,-0.0603,-0.0756,-0.0764,-0.0772,-0.0779,-0.0623,-0.0612,-0.0601,0,0,0,0,0,0,0,0,0,0,0,0,0,0,0,0,0,0,0,0,0,0,0,0,0,0,0,0,0,0,0,0,0,0,0,0,0,0,0,0,0,0,0,0,0,0,0,0,0,0,0,0,0,0,0,0,0,0,0,0,0,0,0,0,0,0,0,0,0]}]],[[{"header":{"parameterUnit":"kt","parameterCategory":2,"dx":1,"dy":1,"la1":30.253999710083008,"la2":30.299108505249023,"lo1":-89.0895004272461,"lo2":-89.04439544677734,"nx":28,"ny":28,"refTime":"2022-10-01T21:00:00:Z","depth":"2","parameterNumber":2,"parameterNumberName":"U-component_of_CURRENTS"},"data":[-0.3291,-0.3047,-0.2903,-0.254,-0.2362,-0.2139,-0.2107,-0.1989,-0.197,-0.1839,-0.1731,-0.1649,-0.1815,-0.1317,-0.1197,-0.103,-0.1401,-0.0906,-0.1981,-0.2135,-0.223,-0.2453,-0.2262,0,0,0,0,0,-0.3406,-0.3267,-0.3031,-0.2744,-0.2603,-0.2607,-0.2622,-0.2566,-0.2537,-0.2566,-0.2534,-0.218,-0.1894,-0.1992,-0.1704,-0.1667,-0.1683,-0.1611,-0.1661,-0.1764,-0.1858,-0.1668,-0.0831,-0.0829,-0.0827,-0.0825,0,0,-0.365,-0.3469,-0.323,-0.2999,-0.2906,-0.285,-0.2814,-0.2938,-0.2999,-0.3069,-0.3262,-0.3165,-0.3144,-0.2745,-0.2638,-0.2589,-0.2887,-0.2792,-0.2835,-0.289,-0.2743,-0.262,-0.2196,-0.2202,-0.2207,-0.2212,-0.2217,0,-0.3801,-0.3702,-0.3551,-0.3265,-0.3199,-0.3183,-0.3254,-0.329,-0.3592,-0.3686,-0.3816,-0.3849,-0.3811,-0.3538,-0.3466,-0.3379,-0.3707,-0.3469,-0.4376,-0.3369,-0.3257,-0.3268,-0.3322,-0.298,-0.2991,-0.3,-0.3006,-0.301,-0.4009,-0.3887,-0.3684,-0.3581,-0.355,-0.3533,-0.3571,-0.3828,-0.3894,-0.419,-0.4186,-0.4318,-0.4301,-0.431,-0.4231,-0.4162,-0.4459,-0.3736,-0.3665,-0.4412,-0.4419,-0.4435,-0.4448,-0.313,-0.3115,-0.3102,-0.3092,0,-0.4155,-0.4081,-0.393,-0.3891,-0.3896,-0.3832,-0.4006,-0.4054,-0.4258,-0.4316,-0.4351,-0.4621,-0.4641,-0.4771,-0.4813,-0.4769,-0.4734,-0.4655,-0.4158,-0.4083,-0.4498,-0.45,-0.4347,-0.4337,-0.4328,-0.4321,-0.4315,0,-0.4312,-0.4258,-0.4186,-0.41,-0.4018,-0.4214,-0.4206,-0.4322,-0.4497,-0.4537,-0.4744,-0.4787,-0.4927,-0.4967,-0.4979,-0.4849,-0.4999,-0.4747,-0.4735,-0.4345,-0.4289,-0.5005,-0.5001,-0.5045,-0.5045,-0.5046,-0.5046,0,-0.4487,-0.4482,-0.4308,-0.4324,-0.4415,-0.442,-0.4494,-0.4648,-0.4684,-0.4804,-0.4871,-0.4946,-0.4942,-0.4984,-0.4984,-0.5008,-0.5008,-0.5056,-0.4799,-0.4782,-0.4327,-0.4266,-0.5046,-0.5046,-0.5046,-0.5047,-0.5047,0,-0.4704,-0.4625,-0.447,-0.4602,-0.4602,-0.4616,-0.4694,-0.4724,-0.4858,-0.4909,-0.4978,-0.5028,-0.5029,-0.5039,-0.5045,-0.5052,-0.5022,-0.5035,-0.5035,-0.4728,-0.4733,-0.4276,-0.4131,-0.5033,-0.5033,-0.5033,-0.5033,0,-0.4899,-0.475,-0.4809,-0.4778,-0.474,-0.4874,-0.4903,-0.4961,-0.5011,-0.5047,-0.5085,-0.5066,-0.5063,-0.504,-0.5064,-0.5032,-0.5034,-0.5041,-0.5013,-0.501,-0.4782,-0.4747,-0.4267,-0.4165,-0.5035,-0.5035,-0.5035,0,-0.5062,-0.5028,-0.5027,-0.4997,-0.5053,-0.5056,-0.5082,-0.5077,-0.5087,-0.5124,-0.5109,-0.5062,-0.5086,-0.5035,-0.5009,-0.5027,-0.5035,-0.4994,-0.4994,-0.4993,-0.5058,-0.4785,-0.4757,-0.5077,-0.5077,-0.5078,-0.5037,0,-0.5158,-0.5176,-0.517,-0.5066,-0.5126,-0.5109,-0.5116,-0.516,-0.516,-0.5161,-0.5149,-0.512,-0.5065,-0.5066,-0.5,-0.4985,-0.4964,-0.4981,-0.496,-0.4985,-0.496,-0.4959,-0.4942,-0.494,-0.4939,-0.4938,0,0,-0.5323,-0.5189,-0.5214,-0.5181,-0.5178,-0.5213,-0.5161,-0.5199,-0.5173,-0.5162,-0.5156,-0.5097,-0.5041,-0.4992,-0.4965,-0.4963,-0.4953,-0.4922,-0.4965,-0.4969,-0.4972,-0.4951,-0.4952,-0.4935,-0.4935,-0.4934,-0.4934,0,-0.5226,-0.5277,-0.52,-0.5219,-0.5193,-0.5194,-0.5202,-0.5191,-0.5191,-0.5172,-0.5112,-0.5097,-0.5031,-0.4977,-0.4936,-0.4949,-0.4908,-0.4927,-0.4929,-0.4954,-0.4959,-0.4964,-0.4945,-0.4947,-0.493,-0.493,-0.493,0,-0.521,-0.5159,-0.5127,-0.5124,-0.5113,-0.5104,-0.511,-0.5152,-0.5124,-0.5091,-0.5071,-0.5047,-0.4967,-0.4935,-0.4914,-0.4899,-0.4877,-0.4875,-0.488,-0.4837,-0.4859,-0.4865,-0.487,-0.4805,-0.4806,-0.4806,0,0,-0.5153,-0.5109,-0.506,-0.5091,-0.5094,-0.5084,-0.5131,-0.5121,-0.5103,-0.5122,-0.508,-0.5019,-0.4966,-0.4941,-0.4893,-0.4884,-0.4857,-0.4865,-0.487,-0.4876,-0.4837,-0.4859,-0.4864,-0.4806,-0.4806,-0.4806,0,0,-0.511,-0.4989,-0.4938,-0.5001,-0.4989,-0.499,-0.5075,-0.5075,-0.5107,-0.5089,-0.5022,-0.5005,-0.497,-0.4929,-0.4942,-0.4874,-0.4842,-0.4839,-0.4918,-0.4924,-0.493,-0.4893,-0.4871,0,0,0,0,0,-0.489,-0.4979,-0.4931,-0.493,-0.4956,-0.4987,-0.5008,-0.5044,-0.5035,-0.5102,-0.5049,-0.5003,-0.4904,-0.4915,-0.4907,-0.4902,-0.4811,-0.481,-0.4809,-0.4906,-0.4914,-0.492,0,0,0,0,0,0,-0.4888,-0.4878,-0.4931,-0.4911,-0.492,-0.4984,-0.4943,-0.4958,-0.5029,-0.5031,-0.5017,-0.5002,-0.4947,-0.4915,-0.4909,-0.4905,-0.4874,-0.481,-0.481,-0.4809,-0.4909,-0.4915,-0.492,0,0,0,0,0,-0.4887,-0.4879,-0.4884,-0.4918,-0.4925,-0.4976,-0.4941,-0.4953,-0.5033,-0.4962,-0.4956,-0.5054,-0.4951,-0.4939,-0.4911,-0.4909,-0.4878,-0.4875,-0.481,-0.4809,-0.4809,-0.4912,0,0,0,0,0,0,-0.4886,-0.4942,-0.4891,-0.49,-0.4884,-0.4979,-0.4983,-0.4949,-0.496,-0.4958,-0.4987,-0.4986,-0.4953,-0.4944,-0.4936,-0.4913,-0.4881,-0.4879,-0.4877,-0.481,-0.4809,-0.4809,0,0,0,0,0,0,-0.4946,-0.4948,-0.4896,-0.485,-0.4855,-0.498,-0.4983,-0.4965,-0.4953,-0.4985,-0.4986,-0.4985,-0.4889,-0.4948,-0.4941,-0.4922,-0.4884,-0.4882,-0.488,-0.4879,-0.4809,-0.4809,0,0,0,0,0,0,-0.4951,-0.4953,-0.4849,-0.4853,-0.4857,-0.4973,-0.4963,-0.4951,-0.5034,-0.498,-0.5027,-0.5023,-0.4888,-0.4886,-0.4945,-0.493,-0.4924,-0.4884,-0.4882,-0.4881,-0.488,0,0,0,0,0,0,0,-0.4954,-0.4896,-0.482,-0.4855,-0.4859,-0.4979,-0.4983,-0.4988,-0.5034,-0.5031,-0.5028,-0.5025,-0.4896,-0.4894,-0.4892,-0.4936,0,0,-0.4884,-0.4883,0,0,0,0,0,0,0,0,-0.49,-0.4897,-0.482,-0.4821,-0.4822,-0.498,-0.4983,-0.4987,-0.5033,-0.5031,-0.5028,-0.5026,-0.4896,-0.4894,-0.4892,0,0,0,0,0,0,0,0,0,0,0,0,0,0,0,-0.482,-0.4821,0,-0.498,-0.4983,-0.4986,-0.5033,-0.5031,-0.5029,-0.5027,-0.4895,-0.4894,-0.4892,0,0,0,0,0,0,0,0,0,0,0,0,0,0,0,0,0,0,0,0,0,0,0,0,0,0,0,0,0,0,0,0,0,0,0,0,0,0,0,0,0,0,0,0,0,0,0,0,0,0,0,0,0,0,0,0,0,0,0,0,0,0,0,0,0,0,0,0,0]}],[{"header":{"parameterUnit":"kt","parameterCategory":2,"dx":1,"dy":1,"la1":30.253999710083008,"la2":30.299108505249023,"lo1":-89.0895004272461,"lo2":-89.04439544677734,"nx":28,"ny":28,"refTime":"2022-10-01T21:00:00:Z","depth":"2","parameterNumber":3,"parameterNumberName":"V-component_of_CURRENTS"},"data":[-0.1286,-0.1425,-0.1635,-0.1718,-0.1794,-0.1726,-0.1617,-0.1378,-0.1059,-0.0721,-0.035,-0.023,0.0223,0.0529,0.0721,0.1019,0.1051,0.1052,0.0921,0.0991,0.0986,0.1158,0.1306,0,0,0,0,0,-0.1321,-0.1526,-0.1695,-0.1832,-0.1827,-0.1807,-0.1575,-0.1401,-0.1082,-0.0699,-0.047,-0.0147,0.0119,0.0372,0.0805,0.0994,0.1042,0.1094,0.1175,0.1173,0.1171,0.1268,0.119,0.1191,0.1191,0.1191,0,0,-0.14,-0.1535,-0.1823,-0.1871,-0.1852,-0.1741,-0.1606,-0.1301,-0.1033,-0.0597,-0.0462,-0.012,0.0064,0.0307,0.0473,0.0758,0.0779,0.1048,0.1051,0.1053,0.1139,0.0941,0.1031,0.103,0.1029,0.1029,0.1028,0,-0.1462,-0.1695,-0.1722,-0.1858,-0.178,-0.1616,-0.1359,-0.126,-0.0828,-0.059,-0.0249,-0.011,0.0061,0.0286,0.0406,0.0583,0.0922,0.092,0.0834,0.1247,0.1032,0.1053,0.1042,0.1149,0.1149,0.1149,0.1148,0.1148,-0.1641,-0.1677,-0.1726,-0.1715,-0.1577,-0.1414,-0.1274,-0.0934,-0.0748,-0.0294,-0.0181,-0.0045,0.0101,0.0304,0.0558,0.0678,0.0776,0.0909,0.1145,0.0898,0.0921,0.0912,0.0903,0.1146,0.1146,0.1147,0.1147,0,-0.1717,-0.1698,-0.1571,-0.1368,-0.128,-0.1205,-0.0838,-0.071,-0.0461,-0.0215,-0.0167,0.0146,0.0254,0.0419,0.0642,0.0828,0.1001,0.101,0.0864,0.0893,0.0918,0.0907,0.1001,0.0999,0.0998,0.0996,0.0995,0,-0.1699,-0.1535,-0.143,-0.1341,-0.121,-0.0848,-0.0693,-0.0488,-0.021,-0.0021,0.0199,0.0368,0.0593,0.0706,0.0805,0.0912,0.1002,0.1086,0.1119,0.1173,0.1161,0.1194,0.1181,0.1327,0.1328,0.133,0.1332,0,-0.1715,-0.1336,-0.1315,-0.1156,-0.0741,-0.0646,-0.0462,-0.0167,-0.005,0.018,0.0298,0.0533,0.0559,0.0783,0.0804,0.0861,0.1005,0.1149,0.1119,0.1101,0.1197,0.1183,0.1334,0.1334,0.1334,0.1335,0.1336,0,-0.149,-0.1371,-0.1239,-0.0801,-0.0708,-0.0539,-0.0282,-0.0124,0.0148,0.0252,0.0455,0.0573,0.0678,0.0727,0.0905,0.0876,0.0888,0.0967,0.0968,0.0946,0.0949,0.0824,0.0917,0.0837,0.0836,0.0834,0.0833,0,-0.1483,-0.1331,-0.112,-0.0826,-0.0641,-0.0369,-0.0234,-0.0012,0.0144,0.0309,0.0464,0.0577,0.0576,0.0583,0.074,0.0788,0.0854,0.0824,0.0965,0.0961,0.0899,0.1001,0.1069,0.0891,0.0813,0.0815,0.0817,0,-0.1464,-0.1154,-0.1108,-0.0948,-0.0581,-0.0429,-0.0266,-0.0045,0.0041,0.0262,0.0384,0.0505,0.0555,0.0593,0.0616,0.0755,0.0795,0.0723,0.0734,0.0586,0.1013,0.0966,0.0971,0.1008,0.1015,0.102,0.0801,0,-0.1193,-0.1086,-0.1023,-0.0793,-0.0635,-0.0457,-0.0217,-0.011,-0.0025,0.012,0.0287,0.0396,0.0514,0.0549,0.05,0.0646,0.0549,0.0694,0.0679,0.0773,0.0643,0.0656,0.0508,0.0508,0.0508,0.0508,0,0,-0.1134,-0.1106,-0.0989,-0.083,-0.0692,-0.0497,-0.0347,-0.0236,0.0014,0.0071,0.009,0.0321,0.0352,0.0485,0.0478,0.0521,0.0524,0.0451,0.0707,0.0729,0.0749,0.0634,0.0646,0.0507,0.0507,0.0507,0.0507,0,-0.1013,-0.104,-0.1033,-0.0842,-0.062,-0.0477,-0.0429,-0.0168,-0.0108,0.0043,0.0095,0.0198,0.0305,0.039,0.0426,0.0508,0.0488,0.0507,0.0494,0.07,0.0721,0.0741,0.0632,0.0642,0.0507,0.0507,0.0507,0,-0.0912,-0.0832,-0.086,-0.071,-0.0582,-0.041,-0.0352,-0.0199,-0.0093,-0.0039,0.0081,0.0146,0.0216,0.0318,0.0359,0.0345,0.0456,0.0419,0.0422,0.0393,0.0605,0.0629,0.0651,0.0377,0.0376,0.0376,0,0,-0.0802,-0.0824,-0.0613,-0.0661,-0.057,-0.0396,-0.0334,-0.0216,-0.0073,-0.0035,0.0051,0.0124,0.0192,0.0233,0.0311,0.0371,0.0391,0.04,0.0406,0.0411,0.0386,0.0596,0.0619,0.0373,0.0373,0.0373,0,0,-0.0702,-0.0553,-0.0553,-0.0605,-0.0423,-0.0195,-0.0185,-0.011,-0.0022,-0.0028,0.0042,0.0066,0.016,0.019,0.0149,0.0294,0.0274,0.0283,0.0262,0.027,0.0276,0.0229,0.0161,0,0,0,0,0,-0.0481,-0.0565,-0.057,-0.0559,-0.0445,-0.0221,-0.0196,-0.0095,-0.0109,-0.0062,0.001,0.001,0.0213,0.0178,0.0189,0.0213,0.0336,0.0342,0.0349,0.0338,0.0346,0.0353,0,0,0,0,0,0,-0.0474,-0.0462,-0.0562,-0.0358,-0.033,-0.0224,-0.0197,-0.0169,-0.0108,-0.0097,-0.0003,0.0012,0.0072,0.0172,0.0183,0.0205,0.0157,0.0338,0.0344,0.0349,0.034,0.0347,0.0353,0,0,0,0,0,-0.0468,-0.0457,-0.0328,-0.0354,-0.033,-0.0191,-0.0197,-0.0173,-0.0131,-0.0025,-0.0007,-0.0054,0.0069,0.0083,0.0178,0.02,0.015,0.0154,0.0342,0.0346,0.035,0.0344,0,0,0,0,0,0,-0.0463,-0.0433,-0.0318,-0.0303,-0.0345,-0.0191,-0.0172,-0.0177,-0.0063,-0.0041,-0.0073,-0.0066,0.0067,0.0079,0.0089,0.0198,0.0144,0.0148,0.0151,0.0345,0.0349,0.0352,0,0,0,0,0,0,-0.0436,-0.0423,-0.0311,-0.0307,-0.029,-0.0191,-0.0175,-0.0141,-0.0065,-0.012,-0.0108,-0.0071,0.0042,0.0075,0.0084,0.0134,0.014,0.0144,0.0146,0.0148,0.0348,0.0351,0,0,0,0,0,0,-0.0427,-0.0415,-0.031,-0.0298,-0.0284,-0.0116,-0.016,-0.0067,-0.0026,-0.0129,-0.0022,-0.002,0.0037,0.0048,0.008,0.0126,0.0132,0.014,0.0143,0.0145,0.0146,0,0,0,0,0,0,0,-0.042,-0.0544,-0.0398,-0.0291,-0.0279,-0.0164,-0.0161,-0.0158,-0.0025,-0.0024,-0.0022,-0.0021,0.0119,0.0123,0.0127,0.012,0,0,0.014,0.0142,0,0,0,0,0,0,0,0,-0.0544,-0.0544,-0.0397,-0.0393,-0.039,-0.0164,-0.0161,-0.0158,-0.0025,-0.0024,-0.0022,-0.0021,0.012,0.0123,0.0127,0,0,0,0,0,0,0,0,0,0,0,0,0,0,0,-0.0397,-0.0394,0,-0.0163,-0.0161,-0.0159,-0.0025,-0.0024,-0.0023,-0.0022,0.0121,0.0124,0.0126,0,0,0,0,0,0,0,0,0,0,0,0,0,0,0,0,0,0,0,0,0,0,0,0,0,0,0,0,0,0,0,0,0,0,0,0,0,0,0,0,0,0,0,0,0,0,0,0,0,0,0,0,0,0,0,0,0,0,0,0,0,0,0,0,0,0,0,0,0]}]],[[{"header":{"parameterUnit":"kt","parameterCategory":2,"dx":1,"dy":1,"la1":30.253999710083008,"la2":30.299108505249023,"lo1":-89.0895004272461,"lo2":-89.04439544677734,"nx":28,"ny":28,"refTime":"2022-10-01T21:00:00:Z","depth":"4","parameterNumber":2,"parameterNumberName":"U-component_of_CURRENTS"},"data":[-0.1296,-0.1244,-0.1211,-0.1027,-0.0967,-0.0914,-0.0958,-0.1068,-0.1066,-0.1215,-0.139,-0.1469,-0.1799,-0.1811,-0.208,-0.214,-0.2159,-0.2624,-0.2618,-0.2761,-0.2783,-0.2802,-0.2795,0,0,0,0,0,-0.1373,-0.1323,-0.1264,-0.1193,-0.1136,-0.1145,-0.1193,-0.128,-0.1404,-0.1335,-0.1496,-0.1624,-0.1862,-0.2031,-0.2129,-0.2349,-0.2632,-0.2445,-0.2551,-0.2775,-0.2799,-0.2784,0,0,0,0,0,0,-0.1463,-0.1434,-0.1396,-0.1366,-0.133,-0.1287,-0.1372,-0.1379,-0.145,-0.1666,-0.1611,-0.1914,-0.2139,-0.2337,-0.243,-0.2572,-0.2568,-0.2474,-0.2512,-0.2538,-0.2476,-0.2291,-0.2054,0,0,0,0,0,-0.153,-0.1549,-0.1541,-0.1504,-0.1521,-0.1525,-0.158,-0.1614,-0.1762,-0.1943,-0.1963,-0.2118,-0.2282,-0.2517,-0.2689,-0.275,-0.3027,-0.2954,-0.2967,-0.3009,-0.2907,-0.2938,-0.2951,-0.2889,-0.2892,-0.2894,-0.2895,0,-0.1615,-0.1596,-0.1639,-0.1628,-0.1689,-0.1762,-0.1788,-0.1996,-0.2011,-0.2212,-0.2216,-0.2473,-0.2643,-0.2692,-0.295,-0.3071,-0.3078,-0.3016,-0.3061,-0.2945,-0.2969,-0.2977,-0.2983,-0.2914,-0.2912,-0.2911,-0.2909,0,-0.1688,-0.1691,-0.1683,-0.1786,-0.1827,-0.1865,-0.1996,-0.2054,-0.2275,-0.2356,-0.2459,-0.2753,-0.2882,-0.3105,-0.3252,-0.3204,-0.3222,-0.3179,-0.33,-0.3333,-0.3018,-0.3016,-0.2945,-0.2938,-0.2932,-0.2927,-0.2923,0,-0.179,-0.1784,-0.1831,-0.1843,-0.1879,-0.1954,-0.2037,-0.2206,-0.2401,-0.2454,-0.2757,-0.2823,-0.314,-0.3232,-0.3282,-0.3246,-0.3379,-0.3202,-0.3218,-0.3427,-0.3424,-0.3379,-0.337,-0.3466,-0.3467,-0.3467,-0.3468,0,-0.1908,-0.1894,-0.1833,-0.185,-0.1938,-0.2014,-0.209,-0.2279,-0.236,-0.2657,-0.2751,-0.2986,-0.3082,-0.3205,-0.3253,-0.3308,-0.3369,-0.3429,-0.3258,-0.3242,-0.3379,-0.3369,-0.3469,-0.3469,-0.3469,-0.3469,-0.3469,0,-0.2004,-0.1995,-0.1918,-0.1978,-0.1988,-0.2031,-0.2193,-0.225,-0.2515,-0.2624,-0.2811,-0.295,-0.3087,-0.3091,-0.3226,-0.3284,-0.3313,-0.3346,-0.3347,-0.3114,-0.314,-0.3205,-0.3334,-0.3333,-0.3333,-0.3333,-0.3332,0,-0.2102,-0.2039,-0.2054,-0.2048,-0.2031,-0.2156,-0.2225,-0.2353,-0.2454,-0.2598,-0.2759,-0.2895,-0.2928,-0.3031,-0.31,-0.3209,-0.3233,-0.322,-0.3323,-0.3319,-0.3118,-0.3194,-0.3411,-0.3328,-0.3328,-0.3329,-0.3329,0,-0.2171,-0.2181,-0.218,-0.2187,-0.2214,-0.222,-0.2314,-0.2392,-0.2516,-0.2579,-0.2698,-0.2823,-0.2891,-0.2961,-0.3082,-0.3132,-0.3209,-0.3222,-0.3224,-0.3148,-0.3393,-0.3208,-0.3192,-0.3402,-0.3404,-0.3406,-0.3326,0,-0.221,-0.2219,-0.2223,-0.2252,-0.2237,-0.2242,-0.2324,-0.2387,-0.2472,-0.2515,-0.2686,-0.2688,-0.2804,-0.2908,-0.2933,-0.3117,-0.3149,-0.3205,-0.312,-0.3228,-0.3177,-0.318,-0.311,-0.3108,-0.3106,-0.3105,0,0,-0.2256,-0.2268,-0.2323,-0.2305,-0.2306,-0.2405,-0.2371,-0.2415,-0.2422,-0.2478,-0.2476,-0.2675,-0.2694,-0.2883,-0.2927,-0.2958,-0.3026,-0.3005,-0.3187,-0.3197,-0.3206,-0.3163,-0.3168,-0.3101,-0.31,-0.31,-0.3099,0,-0.2272,-0.235,-0.2344,-0.2346,-0.2376,-0.2376,-0.2415,-0.2413,-0.244,-0.245,-0.2544,-0.2614,-0.271,-0.2754,-0.282,-0.2929,-0.2995,-0.3092,-0.3086,-0.3171,-0.3183,-0.3194,-0.3154,-0.316,-0.3095,-0.3095,-0.3095,0,-0.2302,-0.2343,-0.2378,-0.2392,-0.2396,-0.2381,-0.2418,-0.243,-0.2452,-0.245,-0.2469,-0.2547,-0.2627,-0.2706,-0.2763,-0.2723,-0.2903,-0.2885,-0.2897,-0.2815,-0.2895,-0.291,-0.2924,-0.2737,-0.2736,-0.2735,0,0,-0.2299,-0.2341,-0.2375,-0.2405,-0.2413,-0.2422,-0.241,-0.2423,-0.243,-0.2425,-0.2435,-0.2503,-0.2598,-0.2632,-0.266,-0.2716,-0.2676,-0.2842,-0.2859,-0.2873,-0.2801,-0.2883,-0.2899,-0.2731,-0.2731,-0.2731,0,0,-0.2299,-0.2384,-0.2425,-0.2456,-0.2444,-0.2411,-0.2387,-0.2421,-0.2395,-0.2446,-0.2461,-0.2466,-0.2577,-0.2565,-0.2501,-0.2713,-0.2644,-0.2655,-0.2715,-0.2735,-0.2752,-0.2655,-0.2516,0,0,0,0,0,-0.2382,-0.2385,-0.2423,-0.244,-0.2449,-0.2406,-0.2388,-0.2378,-0.2462,-0.2411,-0.2443,-0.2482,-0.2536,-0.2476,-0.248,-0.263,-0.2675,-0.2685,-0.2694,-0.2787,-0.281,-0.2828,0,0,0,0,0,0,-0.2389,-0.2411,-0.2422,-0.2414,-0.2417,-0.2405,-0.244,-0.243,-0.2463,-0.2466,-0.2468,-0.2478,-0.2451,-0.2477,-0.248,-0.2625,-0.2515,-0.2679,-0.2688,-0.2695,-0.2795,-0.2813,-0.2829,0,0,0,0,0,-0.2395,-0.2412,-0.2466,-0.2407,-0.2409,-0.2402,-0.2442,-0.2434,-0.2442,-0.2441,-0.2447,-0.2458,-0.2447,-0.2456,-0.2479,-0.2626,-0.2514,-0.2515,-0.2685,-0.2691,-0.2697,-0.2804,0,0,0,0,0,0,-0.2399,-0.2321,-0.2461,-0.2456,-0.2456,-0.2397,-0.2398,-0.2438,-0.2415,-0.2421,-0.2428,-0.243,-0.2443,-0.2451,-0.2457,-0.263,-0.2513,-0.2513,-0.2514,-0.269,-0.2695,-0.2699,0,0,0,0,0,0,-0.2314,-0.2318,-0.2457,-0.252,-0.252,-0.2394,-0.2396,-0.2395,-0.242,-0.2397,-0.2401,-0.2431,-0.252,-0.2447,-0.2452,-0.244,-0.2512,-0.2512,-0.2513,-0.2513,-0.2694,-0.2698,0,0,0,0,0,0,-0.2313,-0.2315,-0.2518,-0.2519,-0.2519,-0.2439,-0.2392,-0.2437,-0.2372,-0.2399,-0.2383,-0.2388,-0.2521,-0.2521,-0.2448,-0.2432,-0.2438,-0.2512,-0.2512,-0.2513,-0.2513,0,0,0,0,0,0,0,-0.2311,-0.2333,-0.2527,-0.2518,-0.2518,-0.2421,-0.2416,-0.2411,-0.2373,-0.2377,-0.2382,-0.2386,-0.2507,-0.2508,-0.2509,-0.2426,0,0,-0.2512,-0.2512,0,0,0,0,0,0,0,0,-0.2328,-0.2332,-0.2528,-0.2529,-0.253,-0.242,-0.2416,-0.2412,-0.2374,-0.2377,-0.2381,-0.2384,-0.2507,-0.2508,-0.2509,0,0,0,0,0,0,0,0,0,0,0,0,0,0,0,-0.2528,-0.2529,0,-0.2419,-0.2416,-0.2413,-0.2374,-0.2377,-0.238,-0.2383,-0.2508,-0.2508,-0.2509,0,0,0,0,0,0,0,0,0,0,0,0,0,0,0,0,0,0,0,0,0,0,0,0,0,0,0,0,0,0,0,0,0,0,0,0,0,0,0,0,0,0,0,0,0,0,0,0,0,0,0,0,0,0,0,0,0,0,0,0,0,0,0,0,0,0,0,0,0]}],[{"header":{"parameterUnit":"kt","parameterCategory":2,"dx":1,"dy":1,"la1":30.253999710083008,"la2":30.299108505249023,"lo1":-89.0895004272461,"lo2":-89.04439544677734,"nx":28,"ny":28,"refTime":"2022-10-01T21:00:00:Z","depth":"4","parameterNumber":3,"parameterNumberName":"V-component_of_CURRENTS"},"data":[-0.0931,-0.1037,-0.109,-0.1219,-0.1307,-0.1415,-0.1444,-0.1459,-0.1397,-0.1389,-0.1114,-0.1048,-0.0542,-0.0833,-0.008,0.002,0.0183,0.0664,0.0671,0.0908,0.0906,0.0904,0.0562,0,0,0,0,0,-0.0913,-0.0989,-0.1096,-0.1235,-0.133,-0.139,-0.1456,-0.1482,-0.15,-0.1408,-0.1433,-0.1098,-0.0627,-0.0471,-0.0068,-0.0025,0.0509,0.0448,0.0641,0.0906,0.0904,0.0573,0,0,0,0,0,0,-0.0898,-0.0968,-0.108,-0.1193,-0.1307,-0.1381,-0.1436,-0.1444,-0.1482,-0.1488,-0.1436,-0.1164,-0.0987,-0.0485,-0.0033,0.0367,0.0427,0.0528,0.0546,0.0549,0.0233,0.0076,0.0318,0,0,0,0,0,-0.0873,-0.0935,-0.1037,-0.1166,-0.1265,-0.138,-0.1473,-0.1494,-0.1549,-0.1589,-0.1496,-0.127,-0.089,-0.0448,0.0042,0.0479,0.0681,0.085,0.085,0.0668,0.0594,0.0657,0.0629,0.0896,0.0896,0.0895,0.0895,0,-0.0834,-0.0906,-0.1072,-0.1144,-0.1232,-0.1358,-0.1428,-0.1518,-0.1529,-0.1567,-0.1534,-0.1305,-0.1151,-0.0443,-0.0082,0.0562,0.0607,0.0843,0.0647,0.0586,0.0658,0.0629,0.0601,0.0893,0.0894,0.0894,0.0894,0,-0.0798,-0.0897,-0.1028,-0.1175,-0.1232,-0.1314,-0.146,-0.1493,-0.1539,-0.1537,-0.153,-0.1408,-0.1049,-0.0662,-0.0124,0.0081,0.0489,0.063,0.0483,0.0569,0.0614,0.0586,0.0891,0.0891,0.0892,0.0892,0.0893,0,-0.078,-0.0884,-0.1024,-0.1094,-0.1218,-0.1297,-0.1391,-0.1428,-0.1452,-0.1462,-0.1391,-0.1343,-0.0996,-0.0695,-0.0359,0.0058,0.0133,0.0279,0.0381,0.0221,0.0198,0.0317,0.0302,0.0402,0.0398,0.0395,0.0391,0,-0.0702,-0.0892,-0.1009,-0.1067,-0.1205,-0.127,-0.1325,-0.1352,-0.139,-0.1348,-0.1342,-0.1157,-0.1055,-0.0741,-0.0393,-0.0419,0.0082,0.0095,0.0282,0.0286,0.029,0.0282,0.0387,0.0387,0.0385,0.0384,0.0383,0,-0.0705,-0.0791,-0.0959,-0.1077,-0.1113,-0.1205,-0.1254,-0.132,-0.1303,-0.129,-0.1222,-0.1134,-0.0998,-0.0942,-0.0542,-0.0639,-0.0378,-0.0194,-0.0171,-0.018,-0.009,0.0175,0.0163,0.0159,0.0155,0.0151,0.0148,0,-0.0573,-0.0752,-0.0817,-0.0966,-0.1037,-0.1055,-0.1134,-0.1165,-0.1151,-0.1145,-0.1068,-0.1043,-0.0972,-0.0919,-0.0807,-0.0568,-0.0419,-0.0613,-0.0077,-0.0061,-0.0089,-0.0113,-0.0394,0.0091,0.0098,0.0103,0.0107,0,-0.047,-0.0631,-0.0657,-0.0705,-0.0799,-0.0853,-0.094,-0.0981,-0.0985,-0.1008,-0.0992,-0.0987,-0.0895,-0.0858,-0.0758,-0.0653,-0.0487,-0.0514,-0.0503,-0.0276,-0.0085,-0.0165,-0.0137,-0.0409,-0.0406,-0.0404,0.0068,0,-0.0428,-0.0506,-0.0566,-0.0649,-0.07,-0.0783,-0.0804,-0.0842,-0.0812,-0.0795,-0.0798,-0.0749,-0.069,-0.069,-0.0626,-0.0572,-0.0444,-0.0417,-0.0296,-0.0376,-0.0159,-0.0129,-0.0441,-0.0439,-0.0436,-0.0434,0,0,-0.0271,-0.0372,-0.0376,-0.0469,-0.0502,-0.0461,-0.0546,-0.0565,-0.0584,-0.0575,-0.0538,-0.05,-0.0463,-0.0437,-0.047,-0.0478,-0.032,-0.0405,-0.0378,-0.0373,-0.0367,-0.0164,-0.0138,-0.043,-0.0429,-0.0429,-0.0428,0,-0.0252,-0.0267,-0.0339,-0.0387,-0.0425,-0.0417,-0.0438,-0.0451,-0.0428,-0.0504,-0.0374,-0.036,-0.0379,-0.0314,-0.0284,-0.0439,-0.0224,-0.0426,-0.0503,-0.0362,-0.0361,-0.0358,-0.0159,-0.0137,-0.0422,-0.0422,-0.0423,0,-0.0152,-0.0172,-0.0197,-0.0261,-0.0263,-0.033,-0.0218,-0.0268,-0.0303,-0.0165,-0.0204,-0.0154,-0.0094,-0.014,-0.0153,-0.0101,-0.0107,-0.0183,-0.0196,-0.0189,-0.0036,-0.0037,-0.0038,-0.0007,-0.0006,-0.0005,0,0,-0.0122,-0.0174,-0.0188,-0.0249,-0.0268,-0.0232,-0.0243,-0.0201,-0.0184,-0.0163,-0.0113,-0.0067,-0.0052,-0.0039,-0.0041,-0.0114,0.0018,-0.0134,-0.0153,-0.0169,-0.0171,-0.0026,-0.0028,-0.0,-0.0,-0.0,0,0,-0.009,-0.0109,-0.0074,-0.0149,-0.0174,-0.0156,-0.0182,-0.0129,-0.0111,-0.0075,0.0034,0.0051,0.0014,0.0046,0.0096,0.0022,0.0104,0.0092,0.0013,-0.001,-0.0029,-0.0022,0.0249,0,0,0,0,0,-0.0048,-0.0123,-0.0093,-0.0101,-0.0126,-0.0194,-0.0194,-0.0102,-0.0009,-0.0045,0.0022,0.0119,0.0103,0.015,0.0147,0.0116,0.0059,0.0049,0.0039,-0.0081,-0.0107,-0.0129,0,0,0,0,0,0,-0.0051,-0.0064,-0.009,-0.0082,-0.0086,-0.0189,-0.0035,-0.0013,-0.0002,0.0021,0.0099,0.012,0.0193,0.0158,0.0154,0.0123,0.0251,0.0055,0.0046,0.0038,-0.009,-0.0111,-0.0129,0,0,0,0,0,-0.0053,-0.0063,-0.0123,-0.0079,-0.0083,0.0003,-0.0028,-0.0008,0.0013,0.009,0.0114,0.0088,0.0187,0.0193,0.0156,0.0123,0.0254,0.0253,0.0049,0.0042,0.0036,-0.01,0,0,0,0,0,0,-0.0055,-0.0045,-0.0121,-0.0119,-0.0012,0.0013,0.0021,-0.0005,0.0084,0.0104,0.0082,0.0099,0.018,0.0187,0.019,0.0119,0.0257,0.0255,0.0254,0.0044,0.0038,0.0034,0,0,0,0,0,0,-0.0039,-0.0045,-0.012,-0.004,-0.0028,0.0022,0.0029,-0.0014,0.0085,0.0073,0.0089,0.0089,0.0193,0.0181,0.0185,0.0112,0.0259,0.0257,0.0256,0.0255,0.0039,0.0035,0,0,0,0,0,0,-0.004,-0.0044,-0.004,-0.0031,-0.0019,0.0012,-0.0012,-0.0028,0.0115,0.0069,0.0135,0.0144,0.0185,0.019,0.018,0.0104,0.011,0.0259,0.0258,0.0257,0.0256,0,0,0,0,0,0,0,-0.004,-0.0031,-0.0135,-0.0023,-0.0013,-0.01,-0.0099,-0.0098,0.0117,0.0125,0.0133,0.014,0.0269,0.0267,0.0265,0.0098,0,0,0.0259,0.0258,0,0,0,0,0,0,0,0,-0.0027,-0.003,-0.0135,-0.0135,-0.0135,-0.01,-0.0099,-0.0099,0.0118,0.0125,0.0131,0.0137,0.0268,0.0267,0.0265,0,0,0,0,0,0,0,0,0,0,0,0,0,0,0,-0.0135,-0.0135,0,-0.01,-0.0099,-0.0099,0.0119,0.0124,0.013,0.0134,0.0268,0.0266,0.0265,0,0,0,0,0,0,0,0,0,0,0,0,0,0,0,0,0,0,0,0,0,0,0,0,0,0,0,0,0,0,0,0,0,0,0,0,0,0,0,0,0,0,0,0,0,0,0,0,0,0,0,0,0,0,0,0,0,0,0,0,0,0,0,0,0,0,0,0,0]}]]]